Location: Frankfurt+am+Main
(50.1100°N, 8.4815°E)
Time: 13:35:37
(UTC+01:00)

ISS - Pass Details

Date: 15 November 2017
Orbit: 402 x 407 km, 51.6° (Epoch: 19 November)

Event Time Altitude Azimuth Distance (km) Brightness Sun altitude
Exits shadow 06:28:09 14° 251° (WSW) 1,237 -1.9 -11.4°
Maximum altitude 06:29:34 18° 219° (SW) 1,073 -1.9 -11.2°
Drops below altitude 10° 06:31:51 10° 174° (S) 1,449 -0.7 -10.8°
Sets 06:34:21 0° 155° (SSE) 2,304 0.7 -10.4°
